Location: Charleville
(26.4021°S, 146.2454°E)
Time: 16:19:33
(UTC+10:00)

Hubble Space Telescope - Visible Passes

Search period start: 12 July 2025 00:00
Search period end: 22 July 2025 00:00
Orbit: 488 x 490 km, 28.5° (Epoch: 11 July)

Date Brightness Start Highest point End Pass type
(mag) Time Alt. Az. Time Alt. Az. Time Alt. Az.
12 Jul 3.3 18:32:56 10° WNW 18:35:25 16° NNW 18:37:54 10° NNE visible
13 Jul 3.4 18:06:18 10° WNW 18:08:40 16° NNW 18:11:01 10° N visible
21 Jul 3.1 06:11:49 10° NNW 06:14:40 20° NNE 06:17:32 10° ENE visible
